Weather History for Canadian, TX

Change the Weather History Date:

Wednesday, November 14, 2012

  Actual Average (KPPA) Record (KPPA)
Temperature  
Mean Temperature 46 °F -  
Max Temperature 66 °F 59 °F 78 °F (1973)
Min Temperature 26 °F 33 °F 11 °F (1986)
Degree Days  
Heating Degree Days 19    
Moisture  
Dew Point 15 °F    
Average Humidity 33    
Maximum Humidity 59    
Minimum Humidity 12    
Precipitation  
Precipitation 0.00 in - - ()
Sea Level Pressure  
Sea Level Pressure 30.24 in    
Wind  
Wind Speed 6 mph (SW)    
Max Wind Speed 24 mph    
Max Gust Speed 29 mph    
Visibility 10 miles    
Events      
Averages and records for this station are not official NWS values.
T = Trace of Precipitation, MM = Missing Value Source: NWS Daily Summary

Daily Weather History Graph

Daily Weather History Graph

Search for Another Location

Airport:

Trip Planner

Search our weather history database for the weather conditions in past years. The results will help you decide how hot, cold, wet, or windy it might be!

Date:

Astronomy

Nov. 14, 2012 Rise Set
Actual Time 7:17 AM CST 5:34 PM CST
Civil Twilight 6:50 AM CST 6:01 PM CST
Nautical Twilight 6:19 AM CST 6:32 PM CST
Astronomical Twilight 5:48 AM CST 7:02 PM CST
Moon 8:06 AM CST (11/14) 6:26 PM CST (11/14)
Length of Visible Light 11h 11m
Length of Day
10h 17m
New Moon, 1% of the Moon is Illuminated
Nov 14
New Moon
Nov 20
First Quarter
Nov 28
Full
Dec 6
Last Quarter
Dec 13
New

Hourly Weather History & Observations

Time (CST) Temp. Windchill Dew Point Humidity Pressure Visibility Wind Dir Wind Speed Gust Speed Precip Events Conditions
12:15 AM 41.0 °F 36.4 °F 14.0 °F 33% 30.28 in 10.0 mi SW 6.9 mph - N/A   Clear
12:35 AM 37.4 °F 32.8 °F 14.0 °F 38% 30.28 in 10.0 mi WSW 5.8 mph - N/A   Clear
12:55 AM 37.4 °F 33.8 °F 14.0 °F 38% 30.28 in 10.0 mi SW 4.6 mph - N/A   Clear
1:15 AM 35.6 °F 29.2 °F 14.0 °F 41% 30.28 in 10.0 mi SSW 8.1 mph - N/A   Clear
1:35 AM 35.6 °F 31.7 °F 14.0 °F 41% 30.28 in 10.0 mi SSW 4.6 mph - N/A   Clear
1:55 AM 33.8 °F 30.8 °F 14.0 °F 44% 30.28 in 10.0 mi SW 3.5 mph - N/A   Clear
2:15 AM 35.6 °F 32.8 °F 14.0 °F 41% 30.28 in 10.0 mi SSW 3.5 mph - N/A   Clear
2:35 AM 33.8 °F 27.0 °F 14.0 °F 44% 30.27 in 10.0 mi SSW 8.1 mph - N/A   Clear
2:55 AM 32.0 °F - 14.0 °F 48% 30.28 in 10.0 mi Calm Calm - N/A   Clear
3:15 AM 32.0 °F 28.7 °F 15.8 °F 51% 30.28 in 10.0 mi West 3.5 mph - N/A   Clear
3:35 AM 32.0 °F 28.7 °F 15.8 °F 51% 30.28 in 10.0 mi West 3.5 mph - N/A   Clear
3:55 AM 32.0 °F - 14.0 °F 48% 30.27 in 10.0 mi Calm Calm - N/A   Clear
4:15 AM 32.0 °F 28.7 °F 15.8 °F 51% 30.27 in 10.0 mi SW 3.5 mph - N/A   Clear
4:35 AM 30.2 °F - 14.0 °F 51% 30.28 in 10.0 mi Calm Calm - N/A   Clear
4:55 AM 30.2 °F 26.7 °F 15.8 °F 55% 30.27 in 10.0 mi WSW 3.5 mph - N/A   Clear
5:15 AM 26.6 °F 20.0 °F 14.0 °F 59% 30.28 in 10.0 mi WSW 5.8 mph - N/A   Clear
5:35 AM 28.4 °F - 15.8 °F 59% 30.28 in 10.0 mi Calm Calm - N/A   Clear
5:55 AM 28.4 °F - 14.0 °F 55% 30.28 in 10.0 mi Calm Calm - N/A   Clear
6:15 AM 28.4 °F - 14.0 °F 55% 30.28 in 10.0 mi Calm Calm - N/A   Clear
6:35 AM 30.2 °F - 15.8 °F 55% 30.29 in 10.0 mi Calm Calm - N/A   Clear
6:55 AM 30.2 °F - 15.8 °F 55% 30.28 in 10.0 mi Calm Calm - N/A   Clear
7:15 AM 28.4 °F - 14.0 °F 55% 30.28 in 10.0 mi Calm Calm - N/A   Clear
7:35 AM 28.4 °F - 14.0 °F 55% 30.29 in 10.0 mi Calm Calm - N/A   Clear
7:55 AM 30.2 °F 24.3 °F 15.8 °F 55% 30.31 in 10.0 mi WSW 5.8 mph - N/A   Clear
8:15 AM 32.0 °F 26.4 °F 15.8 °F 51% 30.31 in 10.0 mi West 5.8 mph - N/A   Clear
8:35 AM 33.8 °F 30.8 °F 17.6 °F 52% 30.32 in 10.0 mi WSW 3.5 mph - N/A   Clear
8:55 AM 39.2 °F 37.0 °F 14.0 °F 36% 30.32 in 10.0 mi West 3.5 mph - N/A   Clear
9:15 AM 44.6 °F 40.2 °F 12.2 °F 27% 30.33 in 10.0 mi NW 8.1 mph - N/A   Clear
9:35 AM 44.6 °F 41.4 °F 12.2 °F 27% 30.33 in 10.0 mi WNW 5.8 mph - N/A   Clear
9:55 AM 46.4 °F 42.4 °F 12.2 °F 25% 30.33 in 10.0 mi WNW 8.1 mph - N/A   Clear
10:15 AM 46.4 °F 42.4 °F 12.2 °F 25% 30.33 in 10.0 mi NW 8.1 mph - N/A   Clear
10:35 AM 50.0 °F - 14.0 °F 24% 30.32 in 10.0 mi NNW 6.9 mph - N/A   Clear
10:55 AM 50.0 °F - 14.0 °F 24% 30.32 in 10.0 mi NW 5.8 mph - N/A   Clear
11:15 AM 53.6 °F - 14.0 °F 21% 30.31 in 10.0 mi NNW 5.8 mph - N/A   Clear
11:35 AM 53.6 °F - 14.0 °F 21% 30.30 in 10.0 mi NW 3.5 mph - N/A   Clear
11:55 AM 55.4 °F - 14.0 °F 20% 30.28 in 10.0 mi North 3.5 mph - N/A   Clear
12:15 PM 57.2 °F - 12.2 °F 17% 30.27 in 10.0 mi NNW 3.5 mph - N/A   Clear
12:35 PM 59.0 °F - 10.4 °F 15% 30.27 in 10.0 mi West 3.5 mph - N/A   Clear
12:55 PM 59.0 °F - 10.4 °F 15% 30.26 in 10.0 mi SW 5.8 mph - N/A   Clear
1:15 PM 60.8 °F - 10.4 °F 14% 30.25 in 10.0 mi WNW 3.5 mph - N/A   Clear
1:35 PM 60.8 °F - 12.2 °F 15% 30.24 in 10.0 mi Calm Calm - N/A   Clear
2:15 PM 62.6 °F - 12.2 °F 14% 30.21 in 10.0 mi SSE 5.8 mph - N/A   Clear
2:35 PM 64.4 °F - 12.2 °F 13% 30.20 in 10.0 mi SSW 3.5 mph - N/A   Clear
2:55 PM 64.4 °F - 12.2 °F 13% 30.19 in 10.0 mi South 4.6 mph - N/A   Clear
3:15 PM 64.4 °F - 12.2 °F 13% 30.18 in 10.0 mi South 8.1 mph - N/A   Clear
3:35 PM 66.2 °F - 12.2 °F 12% 30.17 in 10.0 mi South 5.8 mph - N/A   Clear
3:55 PM 64.4 °F - 14.0 °F 14% 30.17 in 10.0 mi SSE 11.5 mph 18.4 mph N/A   Clear
4:15 PM 64.4 °F - 14.0 °F 14% 30.16 in 10.0 mi SSE 12.7 mph 18.4 mph N/A   Clear
4:35 PM 62.6 °F - 14.0 °F 15% 30.16 in 10.0 mi South 15.0 mph 18.4 mph N/A   Clear
4:55 PM 62.6 °F - 17.6 °F 18% 30.16 in 10.0 mi South 13.8 mph 17.3 mph N/A   Clear
5:15 PM 60.8 °F - 17.6 °F 19% 30.16 in 10.0 mi South 12.7 mph - N/A   Clear
5:35 PM 59.0 °F - 15.8 °F 19% 30.16 in 10.0 mi SSE 9.2 mph - N/A   Clear
5:55 PM 55.4 °F - 15.8 °F 21% 30.16 in 10.0 mi SSE 8.1 mph - N/A   Clear
6:15 PM 55.4 °F - 15.8 °F 21% 30.16 in 10.0 mi South 10.4 mph - N/A   Clear
6:35 PM 53.6 °F - 17.6 °F 24% 30.16 in 10.0 mi South 9.2 mph - N/A   Clear
6:55 PM 53.6 °F - 17.6 °F 24% 30.16 in 10.0 mi South 9.2 mph - N/A   Clear
7:15 PM 53.6 °F - 17.6 °F 24% 30.16 in 10.0 mi South 10.4 mph - N/A   Clear
7:35 PM 51.8 °F - 19.4 °F 28% 30.16 in 10.0 mi South 9.2 mph - N/A   Clear
7:55 PM 51.8 °F - 19.4 °F 28% 30.16 in 10.0 mi South 9.2 mph - N/A   Clear
8:35 PM 51.8 °F - 21.2 °F 30% 30.16 in 10.0 mi South 11.5 mph - N/A   Clear
8:55 PM 51.8 °F - 21.2 °F 30% 30.16 in 10.0 mi South 12.7 mph 21.9 mph N/A   Clear
9:15 PM 51.8 °F - 23.0 °F 33% 30.16 in 10.0 mi South 15.0 mph - N/A   Clear
9:35 PM 50.0 °F - 21.2 °F 32% 30.15 in 10.0 mi South 18.4 mph 24.2 mph N/A   Clear
9:55 PM 50.0 °F - 21.2 °F 32% 30.15 in 10.0 mi South 19.6 mph 26.5 mph N/A   Clear
10:15 PM 50.0 °F - 21.2 °F 32% 30.14 in 10.0 mi South 24.2 mph 28.8 mph N/A   Clear
10:35 PM 50.0 °F - 21.2 °F 32% 30.14 in 10.0 mi South 21.9 mph 26.5 mph N/A   Clear
10:55 PM 48.2 °F - 21.2 °F 34% 30.14 in 10.0 mi SSW 18.4 mph 28.8 mph N/A   Clear
11:15 PM 48.2 °F - 21.2 °F 34% 30.15 in 10.0 mi SSW 13.8 mph - N/A   Clear
11:35 PM 48.2 °F - 21.2 °F 34% 30.15 in 10.0 mi SSW 12.7 mph - N/A   Clear
11:55 PM 46.4 °F 41.1 °F 21.2 °F 37% 30.16 in 10.0 mi SW 11.5 mph - N/A   Clear